SL-16 DEB, 22337

Orbit data source: Space-Track

SL-16 DEB, 22337 is space debris in LEO originally from a launch on Fri, 25 Dec 1992 UTC launched from the Tyuratam Missile And Space Complex (TTMTR). Debris objects in space refer to the collection of defunct objects orbiting the Earth. Examples of debris include non-operational satellites, rocket bodies, and fragments generated from explosions, collisions, or faulty payload assembly.

Loading next visibility...
Identifier
22337, 1992-093AA
Orbit
LEO
Country
Flag of CISCIS
Related business
Manufacturer
Unknown
Mission
Spacecraft
Bus & Motor
Unknown
Mass
Unknown
Launch date (UTC)
1992-12-25 (33 years ago)
Launch vehicle
Unknown
Launch site
Tyuratam Missile And Space Complex (TTMTR)
Object type
Payload
Rocket body
Debris
Shape & HBR
Unknown shape, 0.8 m
Radar Cross Section
Medium (>0.1 m² and <1 m²)

Expand to show TLE details & history
Last TLE update: 11 hours ago

TLE from 11 hours ago
0 SL-16 DEB
1 22337U 92093AA  25341.73615445  .00000056  00000-0  80314-4 0  9991
2 22337  71.2901 335.2197 0148123 179.3609 180.7718 13.84546202663140
Epoch: 2025-12-07T17:40Z
TLE epoch observation values (Epoch: 2025-12-07T17:40:03.744Z)
Latitude
-0°
Longitude
-6.54116°
Altitude
1,058.711 km
Speed
7.268 km/s
True Right ascension
22h 20m 52s
True Declination
0° 00' 00"
Sunlit
Object was in daylight at epoch
Visualization orbit readout
Latitude
Unknown
Longitude
Unknown
Altitude
Unknown
Speed
Unknown
Apparent Right ascension
Unknown
Apparent Declination
Unknown
Sunlit
N/A
Visualization observer readout
Local Sidereal Time
03:00:33
Azimuth
Unknown
Elevation
Unknown
Doppler factor
Unknown
Orbital elements
Apogee altitude
1,054.216 km
Perigee altitude
837.249 km
Semi-major axis
7,323.869 km
Eccentricity
0.01481
Inclination
71.2901°
RAAN
335.2197°
Arg. of periapsis
179.3609°
True anomaly
180.74935°
Mean anomaly
180.7718°
Eccentric anomaly
180.76054°
Mean motion
3.46284 °/min
Orbital period
103.96 mins
BSTAR
0.000080314
Loading maneuver chart data...
Computing Atmospheric mass density...
Loading historical data...
Loading historical data...
Loading historical data...
Loading historical data...
Loading historical data...
Loading historical data...
Loading historical data...

Documentation

Showing up to 5 results
|